Location: Gouy
(50.0008°N, 3.2556°E)
Time: 08:59:47
(UTC+00:00)

FENGYUN 1C DEB - Visible Passes

Search period start: 07 October 2024 00:00
Search period end: 17 October 2024 00:00
Orbit: 779 x 939 km, 98.9° (Epoch: 06 October)

Date Brightness Start Highest point End Pass type
(mag) Time Alt. Az. Time Alt. Az. Time Alt. Az.
07 Oct ? 19:14:20 37° ENE 19:14:43 37° ENE 19:19:29 10° N visible
07 Oct ? 20:56:32 33° WNW 20:56:32 33° WNW 21:00:24 10° NNW visible
08 Oct ? 19:05:03 32° ENE 19:05:29 32° ENE 19:10:04 10° N visible
08 Oct ? 20:47:15 38° WNW 20:47:15 38° WNW 20:51:12 10° NNW visible
09 Oct ? 18:55:45 27° ENE 18:56:15 28° ENE 19:00:38 10° N visible
09 Oct ? 20:37:57 43° WNW 20:37:57 43° WNW 20:41:59 10° NNW visible
10 Oct ? 18:46:27 24° ENE 18:47:02 24° ENE 18:51:11 10° N visible
10 Oct ? 20:28:39 49° NW 20:28:39 49° NW 20:32:43 10° NNW visible
11 Oct ? 18:37:09 21° ENE 18:37:50 21° NE 18:41:42 10° N visible
11 Oct ? 20:19:21 53° NW 20:19:21 53° NW 20:23:27 10° NNW visible
12 Oct ? 18:27:51 18° ENE 18:28:39 18° NE 18:32:10 10° NNE visible
12 Oct ? 20:10:03 55° NNW 20:10:03 55° NNW 20:14:10 10° NNW visible
12 Oct ? 21:52:14 12° WNW 21:52:14 12° WNW 21:53:03 10° WNW visible
13 Oct ? 18:18:32 15° ENE 18:19:28 16° NE 18:22:35 10° NNE visible
13 Oct ? 20:00:44 55° N 20:00:44 55° N 20:04:51 10° NNW visible
13 Oct ? 21:42:56 14° WNW 21:42:56 14° WNW 21:44:18 10° NW visible
14 Oct ? 18:09:14 13° ENE 18:10:18 14° NE 18:12:57 10° NNE visible
14 Oct ? 19:51:25 52° N 19:51:25 52° N 19:55:31 10° NNW visible
14 Oct ? 21:33:37 16° WNW 21:33:37 16° WNW 21:35:24 10° NW visible
15 Oct ? 17:59:55 11° ENE 18:01:09 12° NE 18:03:10 10° NNE visible
15 Oct ? 19:42:07 47° NNE 19:42:07 47° NNE 19:46:11 10° N visible
15 Oct ? 21:24:18 18° WNW 21:24:18 18° WNW 21:26:23 10° NW visible
16 Oct ? 17:51:01 10° ENE 17:52:00 11° NE 17:53:01 10° NE visible
16 Oct ? 19:32:47 43° NNE 19:32:47 43° NNE 19:36:49 10° N visible
16 Oct ? 21:14:59 21° WNW 21:14:59 21° WNW 21:17:18 10° NW visible
